"Pseudo-MPEC" for C0MLYW2

Created 2019 May 21 9:07:08 UT using Find_Orb

Click here for an explanation of pseudo-MPECs

 
 Astrometry: 
     C0MLYW2  C2019 05 14.28783 15 07 24.36 +00 26 09.7    ~5E87 21.9 GVNEOCPG96
     C0MLYW2  C2019 05 14.29345 15 07 24.11 +00 26 05.2    ~5E87 21.4 GVNEOCPG96
     C0MLYW2  C2019 05 14.29906 15 07 23.87 +00 26 00.6    ~5E87 20.7 GVNEOCPG96
     C0MLYW2  C2019 05 14.30467 15 07 23.62 +00 25 56.3    ~5E87 21.4 GVNEOCPG96
     C0MLYW2  C2019 05 14.35807615 07 21.15 +00 25 15.5    ~5E9b 21.7 GVNEOCPH01
     C0MLYW2  C2019 05 14.37507815 07 20.39 +00 25 02.6    ~5E9b 21.2 GVNEOCPH01
     C0MLYW2  C2019 05 14.38018715 07 20.17 +00 24 58.8    ~5E9b 21.1 GVNEOCPH01
     C0MLYW2  C2019 05 14.38870715 07 19.80 +00 24 52.4    ~5E9b 21.4 GVNEOCPH01
     C0MLYW2  C2019 05 14.39880 15 07 19.43 +00 24 45.3    ~5EAM 21.1 GVNEOCPI52
     C0MLYW2  C2019 05 14.40297 15 07 19.23 +00 24 42.1    ~5EAM 20.5 GVNEOCPI52
     C0MLYW2  C2019 05 14.40713 15 07 19.06 +00 24 39.0    ~5EAM 21.1 GVNEOCPI52
     C0MLYW2  C2019 05 14.41130 15 07 18.87 +00 24 35.9    ~5EAM 20.9 GVNEOCPI52
     C0MLYW2  C2019 05 14.41547 15 07 18.69 +00 24 32.7    ~5EAM 20.8 GVNEOCPI52
     C0MLYW2 |C2019 05 15GhURFx%tGmXZ!C@)B'?XAstrometryt1(E7%KY5redacted;ZBk3807
     C0MLYW2 |C2019 05 15iil=F9dXM@!GICOBU#-]HEclickcMhereX=c8_.K(Qqyw0U7^0_a807
     C0MLYW2 |C2019 05 15.hfor]ckkGmjd@H'):@k@#C7Vtt*9X:R?HtWf?Hg2explanation807
     C0MLYW2  C2019 05 15.23509 15 06 50.00 +00 13 53.5    ~5F6q 20.1 GVNEOCPI52
     C0MLYW2  C2019 05 15.23931 15 06 49.78 +00 13 49.3    ~5F6q 21.5 GVNEOCPI52
     C0MLYW2  C2019 05 15.24354 15 06 49.59 +00 13 45.9    ~5F6q 21.1 GVNEOCPI52

Station data:
(807) Cerro Tololo Observatory, La Serena  (S30.169136 W70.805900)  Chile.
(G96) Mt. Lemmon Survey  (N32.442754 W110.788720)  US/Arizona.  Observers T.
   A. Pruyne, B. M. Africano, E. J. Christensen, G. A. Farneth, D. C. Fuls,
   A. R. Gibbs, A. D. Grauer, H. Groeller, J. A. Johnson, R. A. Kowalski, S.
   M. Larson, G. J. Leonard, R. L. Seaman, F. C. Shelly. 1.5-m reflector +
   10K CCD.
(H01) Magdalena Ridge Observatory, Socorro  (N33.984833 W107.189333)  US/New
   Mexico.  Observers W. H. Ryan, E. V. Ryan. Measurer W. H. Ryan. 2.4-m
   f/8.9 reflector + CCD.
(I52) Steward Observatory, Mt. Lemmon Station  (N32.442547 W110.788920)
   US/Arizona.  Observers T. A. Pruyne, B. M. Africano, E. J. Christensen, G.
   A. Farneth, D. C. Fuls, A. R. Gibbs, A. D. Grauer, H. Groeller, J. A.
   Johnson, R. A. Kowalski, S. M. Larson, G. J. Leonard, R. L. Seaman, F. C.
   Shelly. 1.0-m reflector + CCD.

Orbital elements:  C0MLYW2
   Perihelion 2019 Jul 6.866229 +/- 2.82 TT = 20:47:22 (JD 2458671.366229)
Epoch 2019 May 15.0 TT = JDT 2458618.5   Earth MOID: 0.2335   AutoNEOCP
M 344.52133106 +/- 1.6              (J2000 ecliptic)
n   0.29278935 +/- 0.0456           Peri.  192.63642 +/- 6
a   2.24611779 +/- 0.233            Node    80.73522 +/- 1.9
e   0.4446430 +/- 0.0725            Incl.    9.07705 +/- 0.59
P   3.37                   H 22.2   G  0.15   U 10.7  
q 1.24739720 +/- 0.0391    Q 3.24483839 +/- 0.58
From 19 observations 2019 May 14-15 (22.9 hr); mean residual 0".18
Residuals in arcseconds: 
190514 G96  .18-  .39+    190514 H01  .01-  .02+    190515 807  .13-  .03-    
190514 G96  .12-  .13+    190514 I52  .22+  .05+    190515 807  .12-  .01+    
190514 G96  .09+  .24-    190514 I52  .06-  .02+    190515 I52  .45+  .58+    
190514 G96  .14+  .30-    190514 I52  .09+  .08+    190515 I52  .00   .25-    
190514 H01  .12+  .13-    190514 I52  .07-  .16+    190515 I52  .01+  .26-    
190514 H01  .06-  .13-    190514 I52  .08-  .13+    
190514 H01  .02-  .05-    190515 807  .08-  .03-    

Ephemerides (geocentric):
Date (UTC) HH   RA              Dec         delta   r     elong  mag " sig PA
---- -- -- --  -------------   -----------  ------ ------ -----  --- ---- ---
2019 05 21 09  15 03 04.028   -01 23 11.58  .34007 1.3334 158.0 21.4 31.8  26
2019 05 21 10  15 03 02.539   -01 23 57.64  .33995 1.3333 158.0 21.4 32.3  26
2019 05 21 11  15 03 01.051   -01 24 43.78  .33982 1.3331 158.0 21.4 32.7  26
2019 05 21 12  15 02 59.563   -01 25 30.01  .33970 1.3330 157.9 21.4 33.1  26
2019 05 21 13  15 02 58.077   -01 26 16.33  .33958 1.3329 157.9 21.4 33.6  26
2019 05 21 14  15 02 56.592   -01 27 02.73  .33946 1.3327 157.9 21.4 34.0  26
2019 05 21 15  15 02 55.108   -01 27 49.22  .33933 1.3326 157.9 21.4 34.5  26
2019 05 21 16  15 02 53.625   -01 28 35.81  .33921 1.3324 157.9 21.4 34.9  26
2019 05 21 17  15 02 52.143   -01 29 22.48  .33909 1.3323 157.8 21.4 35.4  26
2019 05 21 18  15 02 50.662   -01 30 09.23  .33897 1.3321 157.8 21.4 35.8  26
2019 05 21 19  15 02 49.183   -01 30 56.08  .33884 1.3320 157.8 21.4 36.3  26
2019 05 21 20  15 02 47.704   -01 31 43.01  .33872 1.3318 157.8 21.4 36.7  26
2019 05 21 21  15 02 46.227   -01 32 30.03  .33860 1.3317 157.8 21.4 37.2  26
2019 05 21 22  15 02 44.751   -01 33 17.14  .33848 1.3316 157.7 21.4 37.7  26
2019 05 21 23  15 02 43.275   -01 34 04.34  .33836 1.3314 157.7 21.4 38.1  26
2019 05 22 00  15 02 41.802   -01 34 51.62  .33824 1.3313 157.7 21.4 38.6  26
2019 05 22 01  15 02 40.329   -01 35 39.00  .33812 1.3311 157.7 21.4 39.1  26
2019 05 22 02  15 02 38.857   -01 36 26.46  .33800 1.3310 157.6 21.4 39.5  26
2019 05 22 03  15 02 37.387   -01 37 14.01  .33788 1.3308 157.6 21.4 40.0  26
2019 05 22 04  15 02 35.918   -01 38 01.64  .33776 1.3307 157.6 21.4 40.5  26
2019 05 22 05  15 02 34.450   -01 38 49.37  .33764 1.3305 157.6 21.4 41.0  26
2019 05 22 06  15 02 32.983   -01 39 37.18  .33752 1.3304 157.6 21.4 41.5  26
2019 05 22 07  15 02 31.518   -01 40 25.08  .33740 1.3303 157.5 21.4 42.0  26
2019 05 22 08  15 02 30.053   -01 41 13.07  .33728 1.3301 157.5 21.4 42.5  26
2019 05 22 09  15 02 28.590   -01 42 01.15  .33716 1.3300 157.5 21.4 43.0  26
2019 05 22 10  15 02 27.129   -01 42 49.32  .33704 1.3298 157.5 21.4 43.5  26
2019 05 22 11  15 02 25.668   -01 43 37.57  .33692 1.3297 157.4 21.4 44.0  26
2019 05 22 12  15 02 24.209   -01 44 25.91  .33680 1.3295 157.4 21.4 44.5  26
2019 05 22 13  15 02 22.751   -01 45 14.34  .33669 1.3294 157.4 21.4 45.0  26
2019 05 22 14  15 02 21.295   -01 46 02.86  .33657 1.3293 157.4 21.4 45.6  26
2019 05 22 15  15 02 19.839   -01 46 51.47  .33645 1.3291 157.4 21.4 46.1  26
2019 05 22 16  15 02 18.385   -01 47 40.16  .33633 1.3290 157.3 21.4 46.6  26
2019 05 22 17  15 02 16.933   -01 48 28.94  .33622 1.3288 157.3 21.4 47.1  26
2019 05 22 18  15 02 15.482   -01 49 17.81  .33610 1.3287 157.3 21.4 47.7  26
2019 05 22 19  15 02 14.032   -01 50 06.77  .33598 1.3286 157.3 21.4 48.2  26
2019 05 22 20  15 02 12.583   -01 50 55.82  .33587 1.3284 157.2 21.4 48.7  26
2019 05 22 21  15 02 11.136   -01 51 44.95  .33575 1.3283 157.2 21.4 49.3  26
2019 05 22 22  15 02 09.691   -01 52 34.17  .33563 1.3281 157.2 21.4 49.8  26
2019 05 22 23  15 02 08.246   -01 53 23.48  .33552 1.3280 157.2 21.4 50.4  26
2019 05 23 00  15 02 06.804   -01 54 12.88  .33540 1.3278 157.2 21.4 50.9  25
2019 05 23 01  15 02 05.362   -01 55 02.37  .33529 1.3277 157.1 21.4 51.5  25
2019 05 23 02  15 02 03.922   -01 55 51.95  .33517 1.3276 157.1 21.4 52.1  25
2019 05 23 03  15 02 02.484   -01 56 41.61  .33505 1.3274 157.1 21.4 52.6  25
2019 05 23 04  15 02 01.047   -01 57 31.36  .33494 1.3273 157.1 21.4 53.2  25
2019 05 23 05  15 01 59.611   -01 58 21.20  .33483 1.3271 157.0 21.4 53.8  25
2019 05 23 06  15 01 58.177   -01 59 11.13  .33471 1.3270 157.0 21.4 54.3  25
2019 05 23 07  15 01 56.744   -02 00 01.14  .33460 1.3269 157.0 21.4 54.9  25
2019 05 23 08  15 01 55.313   -02 00 51.25  .33448 1.3267 157.0 21.4 55.5  25